OneWeb SL0315

operational
NORAD ID: 49101 Int'l Des: 2021-075 Owner: ONEWEBN Country: UK Constellation: oneweb
LEOCIRCULARPOLARONEWEB_TYPE

Über OneWeb SL0315

Beschreibung wird geladen...

Live-Position

3D-Globus wird geladen...

Nächste Überflüge

Höhenverlauf

Altitude vs Time

uPlot chart will show altitude changes over time

Zweizeiliger Elementsatz

1 49101U 21075AC 26033.49743851 .00000028 00000-0 43054-4 0 9995
2 49101 87.8952 17.3767 0002104 77.8196 282.3168 13.12441964217502
Epoch: 2. Feb. 2026 • Age: 16 hours

Aktueller Status

Höhe 1237.0 km
Geschwindigkeit 7.23 km/s
Subsatellitenpunkt -56.14°S, 10.41°E
Startdatum 21. Aug. 2021
Alter 4.4 years
Typ internet

Technische Details

Klassifizierung Payload
Masse 148.00 kg
Trockenmasse 140.00 kg
Gesamtmasse 148.00 kg
Länge 1.30 m
Durchmesser 1.00 m
Spannweite 5.00 m
Form Trapezoid+2 pan
Hersteller ONEWUS
Bus-Typ ARROW
Phasenstatus In Orbit
Besitzer/Staat ONEWEBN/UK

Große Konstellationen

Loading constellations...